Temp
30 30 29 28 27 27 27 27 27 28 28 26 26 26 26 26 25 25 25 24 24 24 24 23 23 22 24 25 25 24 24 25 26 25 24 21 20 20 21 20 21 21 18
30 29 29 29 28 28 28 28 27 27 27 27 26 26 26 26 26 25 25 26 24 24 24 23 23 23 22 22 23 21 21 22 22 22 21 19 19 19 20 19 20 22 21
30 29 29 29 29 29 29 29 28 27 27 27 26 26 26 26 26 25 25 25 24 24 24 23 23 22 22 23 22 22 22 21 20 21 21 20 21 20 19 19 20 21 20
31 30 30 29 29 30 30 30 29 28 27 27 27 26 26 26 26 25 25 24 24 24 23 23 22 22 22 21 21 20 20 21 21 21 23 23 21 20 20 21 21 21 21
30 30 30 30 30 29 30 30 29 29 28 27 27 27 26 26 26 25 24 23 22 22 22 21 21 21 21 21 22 21 20 21 22 23 24 23 23 22 21 22 22 22 20
31 30 30 29 29 29 29 29 28 28 28 27 26 26 26 26 26 24 23 24 24 20 20 19 20 19 20 20 21 20 20 20 21 23 24 24 20 21 21 21 22 22 22
30 30 29 29 28 27 28 27 27 27 27 26 26 26 26 23 24 23 24 26 24 21 20 19 19 20 19 19 20 20 20 20 19 20 20 21 21 20 19 19 20 20 20
29 29 28 28 28 27 27 27 26 26 26 26 26 26 22 21 22 23 24 25 20 18 18 18 19 20 19 19 18 19 19 19 19 20 20 20 20 19 19 19 19 19 19
20 24 28 28 28 27 27 27 27 26 26 26 26 23 20 21 21 23 21 17 17 18 19 19 19 19 20 19 19 19 20 20 19 19 19 19 18 18 18 18 20 19 22
20 21 23 26 26 27 27 27 27 26 26 25 24 23 22 22 21 22 19 18 19 19 19 19 18 19 19 19 19 20 20 20 20 19 18 18 18 18 18 18 19 20 21
23 23 23 22 25 26 26 26 25 25 23 23 21 21 21 22 21 20 19 18 20 20 20 19 19 19 19 19 19 20 20 20 20 20 20 20 19 19 19 19 18 19 20
23 22 23 21 22 23 23 23 23 22 22 21 20 19 19 19 19 19 18 18 19 20 21 21 20 18 19 19 19 18 20 20 21 21 22 22 22 22 22 20 19 19 19
24 24 22 21 21 21 21 21 20 20 20 19 19 19 19 19 20 19 18 18 18 19 21 20 20 18 18 19 18 18 19 19 21 22 22 22 22 22 21 20 19 18 17
23 22 21 21 21 22 22 21 21 19 19 19 19 19 19 19 19 19 19 18 18 18 18 18 19 18 18 18 17 17 18 20 21 22 22 22 22 21 21 21 20 20 20
23 22 21 22 22 22 22 21 22 21 21 20 20 19 19 18 18 18 18 18 18 17 17 17 17 16 17 18 18 18 19 20 20 21 21 21 22 22 21 21 20 20 20
24 25 26 26 26 26 24 22 21 21 21 21 21 20 20 19 19 18 18 18 18 17 16 16 16 16 17 19 20 20 20 20 21 21 21 21 21 21 21 21 20 20 19
25 25 27 26 28 27 27 27 25 20 21 21 21 20 20 19 19 19 18 18 17 16 15 16 16 17 18 21 22 22 21 21 21 21 21 21 21 20 20 21 20 20 19
24 25 26 28 28 28 28 28 28 28 25 20 19 19 19 19 18 17 17 16 15 15 15 16 16 17 19 22 22 21 21 21 20 19 20 21 21 20 20 20 20 18 17
25 27 27 28 28 27 27 28 28 28 28 27 20 19 19 18 17 16 15 15 15 15 16 16 16 18 21 20 20 19 20 19 17 20 21 21 20 20 20 19 18 17 17
26 26 26 27 28 27 27 28 28 27 27 28 28 26 18 17 18 15 15 15 15 15 16 16 18 19 18 19 19 19 19 18 19 20 20 20 19 19 19 20 19 19 18
29 28 26 27 27 28 28 28 28 27 27 28 28 26 21 21 22 20 16 15 15 16 17 18 18 17 18 18 18 18 18 19 19 20 20 19 19 19 18 19 19 19 19
28 28 28 28 28 28 28 28 26 27 26 27 27 21 21 22 22 21 19 16 15 16 17 16 16 16 17 17 16 16 16 19 20 19 19 19 18 18 19 18 18 19 18
27 28 29 28 28 26 27 26 27 27 27 27 27 21 20 22 22 21 19 16 15 15 15 16 16 16 15 15 16 17 19 20 19 19 19 19 18 18 18 18 19 19 18
27 28 28 28 27 27 27 27 27 26 25 26 25 25 23 23 21 20 19 16 13 14 14 15 15 15 15 16 18 19 19 18 18 18 18 18 18 17 18 18 19 18 18
28 29 28 28 28 27 27 26 26 26 26 26 25 24 23 20 20 19 18 16 14 13 14 15 15 15 15 18 19 17 17 17 17 17 17 17 17 17 18 18 18 18 18
27 28 27 27 27 27 27 27 27 26 26 26 25 22 21 19 18 17 15 14 13 14 14 15 15 16 18 18 17 16 16 16 16 16 17 17 17 18 18 18 18 18 17
Height
799 802 807 810 814 818 820 821 823 826 827 830 832 833 835 837 839 840 840 839 840 841 842 843 845 846 846 846 846 845 844 842 841 843 847 851 854 857 858 860 861 860 859
794 798 802 806 809 812 815 817 819 821 823 825 827 829 831 833 835 836 837 836 836 837 838 840 843 845 846 846 847 847 847 845 844 844 847 851 854 857 858 859 859 857 858
788 792 796 800 803 805 807 810 813 815 817 820 823 825 826 828 830 831 832 832 835 837 837 839 839 838 844 846 848 847 848 847 845 846 848 851 853 856 857 857 858 857 856
780 784 788 792 795 798 800 803 806 808 811 814 816 818 821 824 825 826 827 831 833 833 833 834 835 838 837 842 845 846 847 849 849 847 845 848 852 854 856 854 854 855 855
776 778 779 782 785 789 793 796 799 802 805 808 811 813 816 818 819 822 827 830 835 831 834 828 834 834 840 839 843 844 845 847 848 847 844 844 848 850 853 852 853 853 853
776 778 780 781 781 782 785 789 793 796 800 803 805 808 811 811 812 814 818 823 816 819 824 828 830 830 836 837 839 842 843 845 846 843 842 844 847 849 850 852 851 850 849
782 785 785 786 786 784 782 783 786 789 792 793 794 798 801 799 803 807 811 814 809 809 815 818 829 830 834 835 835 841 842 844 846 846 845 845 847 851 852 852 851 851 852
780 782 783 783 783 785 785 783 781 783 786 788 790 792 790 795 799 804 803 792 796 817 814 818 823 830 829 835 835 839 842 843 846 847 846 848 849 851 854 854 853 851 850
785 783 781 782 781 780 779 779 777 777 778 781 783 780 783 785 793 799 804 806 802 812 817 814 820 825 827 832 836 839 842 843 845 845 845 846 848 850 852 852 849 848 843
782 777 774 770 778 777 775 775 774 773 771 768 771 779 785 784 795 801 804 806 808 811 815 815 815 823 824 830 834 837 840 841 843 846 844 844 846 847 849 851 851 849 845
792 810 782 754 768 770 773 772 770 768 766 771 773 779 783 787 794 797 803 806 809 811 813 811 811 817 821 825 832 835 839 840 841 845 844 843 844 844 844 844 846 848 847
788 791 789 783 780 769 779 769 768 769 771 775 778 782 786 791 795 797 801 805 809 810 808 809 810 813 819 823 829 834 836 839 839 841 840 839 837 839 840 842 843 843 845
781 776 780 783 773 782 782 770 768 769 773 777 779 783 786 791 794 795 797 802 804 806 805 806 807 812 817 822 829 832 835 837 836 836 837 836 836 837 840 841 839 839 840
782 780 788 787 782 782 776 768 771 773 776 778 781 785 786 790 792 792 793 796 798 801 803 805 807 811 816 822 827 830 833 834 834 833 835 835 834 836 835 836 836 837 836
777 779 780 782 781 778 772 769 771 774 777 780 781 783 785 787 789 789 789 791 793 797 802 804 806 811 817 821 823 826 829 831 833 834 834 833 832 832 833 833 833 833 832
774 773 771 776 772 770 770 773 775 777 778 780 782 782 783 785 787 787 787 789 792 796 799 801 806 810 813 815 818 821 824 826 829 831 831 830 830 830 830 830 831 830 830
771 771 769 770 768 769 770 771 774 777 776 779 782 784 784 785 784 784 786 787 790 795 796 799 802 807 810 811 813 817 819 821 824 827 827 828 828 829 828 827 827 828 830
769 769 769 765 765 766 767 767 767 765 769 774 779 783 783 783 782 782 782 783 788 793 794 797 801 804 806 807 810 814 816 819 821 825 827 825 826 826 826 826 825 827 831
769 765 768 765 764 768 767 768 767 766 767 767 774 778 780 782 782 782 782 784 787 790 794 797 801 804 802 804 809 814 816 820 825 824 823 823 824 825 825 824 825 828 829
767 767 768 768 766 768 766 767 765 766 767 766 766 769 777 781 783 783 784 786 789 791 794 797 799 799 802 806 812 816 821 823 823 823 822 822 823 823 822 821 821 823 823
762 761 766 766 764 760 761 763 762 765 766 764 762 765 773 777 777 779 782 784 788 791 794 798 800 801 804 809 814 818 820 819 820 821 821 821 821 821 822 822 823 822 822
762 761 759 759 758 758 760 762 763 764 766 763 762 767 771 773 775 777 780 784 786 789 792 797 799 800 804 809 811 814 815 816 817 819 819 819 821 821 822 822 823 821 822
760 757 755 755 753 759 762 763 762 761 763 762 762 766 770 770 773 776 779 782 785 788 793 795 798 801 806 810 811 812 813 814 816 817 818 819 820 820 822 822 822 821 821
757 753 751 753 752 758 758 758 758 762 764 763 763 762 766 768 770 774 778 781 784 788 792 795 798 801 806 806 809 812 813 814 816 817 818 818 820 822 823 823 821 822 820
750 749 751 751 752 755 756 758 760 759 759 758 761 763 765 768 769 772 777 781 784 787 791 795 797 801 801 807 809 810 811 814 815 816 818 819 820 823 823 821 822 821 820
750 750 752 752 752 755 755 755 755 755 755 755 757 762 766 768 769 772 776 780 782 786 790 794 798 800 804 807 808 810 811 813 815 817 819 820 821 821 822 822 822 820 821
Wind_Speed
20 22 22 22 20 18 19 18 17 16 14 13 13 11 11 11 11 10 8 5 7 6 3 2 2 3 5 7 4 5 4 5 9 8 10 10 8 6 5 3 4 5 6
21 20 21 20 20 20 20 20 20 19 19 18 17 16 15 14 14 13 12 9 10 9 6 4 3 3 3 4 5 3 3 3 5 9 10 7 8 6 5 4 4 5 3
22 21 21 21 22 22 22 21 21 21 21 19 19 19 18 16 16 16 16 13 9 8 6 5 5 5 4 2 2 1 1 1 2 5 5 9 8 7 5 5 4 6 6
24 24 23 23 23 24 23 23 22 24 22 22 22 22 20 17 17 18 16 10 8 6 8 8 7 6 8 6 6 3 2 2 4 8 10 6 5 6 6 7 8 5 4
22 23 25 25 25 25 23 24 24 22 24 23 22 21 20 18 18 17 11 4 3 14 10 10 8 7 10 10 6 6 6 5 3 5 5 6 7 7 8 2 6 5 5
18 22 21 21 22 23 24 22 21 22 20 20 21 19 19 20 23 23 21 14 23 19 15 13 12 14 16 14 12 10 8 6 8 6 6 5 7 4 3 6 5 6 5
12 15 15 16 18 19 21 21 22 24 23 26 26 23 22 22 27 31 27 9 23 19 15 16 14 13 15 13 13 11 9 8 6 4 5 2 5 4 2 2 4 3 8
11 13 15 16 17 16 16 17 18 20 22 23 22 22 26 25 30 30 22 9 19 12 14 14 15 13 16 13 11 9 6 5 7 4 4 3 2 5 4 3 3 7 12
37 26 15 16 17 16 16 17 18 19 20 22 22 24 22 33 35 33 24 7 3 11 13 17 17 16 16 17 13 10 9 8 10 6 6 7 4 7 5 5 12 13 12
31 23 32 11 13 14 14 15 14 15 16 22 25 27 27 32 36 35 26 3 6 11 15 16 19 18 18 21 15 13 12 11 10 9 7 6 6 5 9 9 6 10 11
13 12 28 35 6 4 9 9 11 11 10 14 18 25 26 33 39 36 26 6 8 12 14 14 16 25 22 20 20 12 11 10 10 10 9 9 11 11 13 14 11 9 11
10 14 10 14 10 6 6 8 10 9 12 14 18 22 24 26 22 37 29 11 12 15 13 12 16 26 23 19 21 11 11 12 11 10 10 7 6 6 6 3 4 8 11
6 15 16 12 2 3 5 8 8 7 10 13 15 16 18 24 19 26 24 22 16 17 10 11 16 24 23 20 22 14 12 14 12 10 9 7 6 4 7 9 10 10 12
6 2 11 11 4 5 7 10 9 7 7 10 11 11 15 17 14 22 23 23 20 20 17 13 16 23 22 19 20 17 13 14 12 10 9 8 6 9 8 6 9 11 14
1 4 6 6 4 4 7 8 8 7 5 7 10 12 15 16 23 26 22 23 19 22 17 18 21 20 20 19 17 17 16 14 13 10 9 11 11 8 8 9 9 10 13
9 10 7 5 6 6 8 8 6 6 4 3 5 6 7 9 11 17 15 16 16 20 22 23 24 22 21 21 17 17 16 15 13 12 12 11 8 10 9 9 12 15 7
6 4 2 4 3 4 4 7 10 6 6 5 4 6 8 10 8 10 13 15 17 23 17 24 25 26 25 21 18 15 16 15 14 11 8 9 8 8 10 11 12 8 7
5 8 6 11 4 4 4 3 7 6 11 11 8 5 5 7 8 10 12 16 22 22 21 25 28 29 24 16 13 10 7 10 6 1 14 9 7 9 10 12 7 5 6
7 10 8 12 2 4 6 5 6 3 3 7 8 4 5 5 4 6 13 16 23 21 24 24 21 21 14 14 10 8 8 6 7 16 8 7 7 9 9 4 3 3 7
9 10 6 8 8 7 8 8 8 3 6 8 7 6 10 7 4 8 15 15 20 21 21 18 13 9 14 14 11 11 11 12 13 9 8 5 7 5 7 5 3 4 9
8 7 5 6 12 13 8 11 7 2 9 10 8 12 13 7 5 9 10 17 21 20 14 11 13 15 17 15 12 8 12 13 5 6 6 5 2 6 2 1 4 5 7
8 10 8 9 9 10 11 6 9 3 10 10 1 11 8 7 5 6 7 10 17 16 16 14 16 19 21 16 14 6 12 15 6 5 4 3 3 3 1 1 3 2 2
13 14 14 11 10 5 7 9 12 6 10 11 6 10 7 5 7 7 9 11 16 16 18 22 23 21 13 16 17 15 15 5 5 4 5 4 4 2 1 2 3 6 10
14 16 10 8 6 5 13 13 7 8 10 10 9 5 5 8 13 10 10 12 16 22 23 22 20 14 17 16 12 8 6 5 5 6 5 4 4 3 2 2 4 7 9
13 9 4 5 6 7 9 7 10 10 10 8 6 8 6 4 13 14 11 14 19 22 24 21 19 17 11 11 8 9 11 13 9 8 5 5 4 4 1 3 5 6 6
6 7 6 9 7 7 10 9 9 10 9 8 5 5 6 5 10 15 16 17 23 25 24 22 20 13 15 13 11 11 12 13 11 11 8 8 7 4 2 2 2 5 8
Wind_Direction
206 206 206 208 211 213 214 214 215 218 214 214 217 215 215 216 217 218 224 179 200 206 202 195 248 299 306 301 298 313 293 308 297 118 151 136 164 200 181 233 275 271 181
207 206 206 210 210 213 216 217 216 216 217 215 217 217 218 219 221 219 219 216 210 208 205 203 230 279 300 301 295 296 301 319 39 92 105 142 182 204 214 252 287 291 240
207 207 209 208 211 215 216 217 215 215 216 218 216 218 218 219 219 221 222 221 217 224 218 227 219 192 228 279 264 235 286 245 159 151 177 192 180 202 218 253 275 285 273
206 206 207 208 212 218 220 217 215 214 213 216 217 216 217 218 220 219 222 221 220 223 230 229 221 218 183 193 221 197 188 202 195 211 198 169 208 179 255 279 244 215 301
211 211 205 206 209 214 219 218 217 216 217 217 220 220 219 221 218 207 207 187 109 289 246 207 221 219 218 179 217 211 174 241 221 222 215 189 203 189 223 206 290 290 225
217 224 224 215 212 211 213 217 215 216 219 217 222 221 220 223 206 195 181 178 241 212 231 230 213 214 224 202 201 181 186 212 262 281 247 228 88 164 238 277 301 307 325
256 259 257 245 233 223 215 209 211 214 212 215 215 212 212 206 207 185 178 229 254 220 196 203 218 214 214 203 195 208 215 225 234 257 305 35 134 200 4 198 247 314 291
318 272 266 255 244 238 234 224 215 215 216 218 216 212 196 184 177 172 174 206 247 233 184 188 196 217 194 189 185 185 196 225 221 228 178 173 206 192 229 241 273 255 264
6 335 301 275 255 242 231 225 219 213 211 212 214 197 179 179 178 179 190 263 243 212 210 185 194 197 196 186 184 187 196 197 202 207 164 182 218 202 214 260 243 235 269
32 341 319 261 258 249 236 228 220 222 217 196 194 204 198 189 179 188 199 297 244 219 211 196 194 195 195 194 186 196 202 210 207 200 209 199 200 208 217 228 283 299 308
51 247 312 327 347 225 220 206 199 189 185 186 180 200 202 199 188 194 199 232 232 211 200 194 192 191 196 199 196 205 213 210 205 200 207 209 195 209 219 218 216 266 298
349 338 341 295 316 30 253 123 149 161 171 178 180 186 198 199 200 206 204 227 242 244 216 208 203 196 193 197 193 220 213 199 202 216 230 230 242 261 271 150 223 261 277
319 346 324 300 5 199 173 106 108 151 174 173 169 177 194 204 215 223 216 244 245 227 224 240 195 192 191 194 196 211 211 209 226 224 238 247 256 275 308 298 267 262 259
291 43 255 244 211 167 126 106 108 123 154 175 179 196 208 223 231 231 236 253 224 223 237 219 201 187 192 190 202 208 211 216 226 237 243 254 267 271 265 287 303 306 299
177 251 249 237 194 143 93 81 111 117 148 187 203 215 217 223 239 246 241 217 215 212 189 179 174 177 182 194 195 203 209 218 231 239 249 248 258 282 294 291 291 292 293
236 240 191 215 194 121 114 102 97 116 150 123 152 200 212 243 227 227 229 222 212 196 186 177 177 180 188 200 199 202 205 210 223 231 242 254 269 278 293 309 306 286 290
273 281 201 244 175 165 162 170 154 142 148 167 199 231 244 259 260 240 226 229 221 191 177 176 177 185 208 212 203 202 202 209 211 235 254 264 278 290 276 297 301 311 305
274 284 277 263 210 193 238 224 293 186 177 167 184 199 249 261 258 245 225 195 181 184 186 178 185 202 222 198 179 189 170 164 130 267 253 259 275 288 305 295 309 13 328
256 272 203 266 248 265 306 277 265 274 295 129 141 184 225 258 246 208 191 188 183 185 186 191 207 236 147 143 144 119 121 129 198 240 242 262 286 295 288 303 22 277 269
229 239 259 283 250 234 253 260 259 224 285 270 245 154 160 172 191 192 190 191 192 195 198 222 203 149 143 141 152 154 202 206 231 246 241 278 284 278 286 278 246 263 244
270 186 197 263 262 259 230 244 261 218 283 268 285 163 165 184 213 186 198 199 200 192 213 192 169 147 148 150 141 153 236 252 219 249 265 246 259 275 230 309 295 324 334
280 281 256 254 275 278 268 260 282 244 278 280 273 143 167 185 228 199 188 191 202 198 177 164 161 145 145 151 157 218 212 229 213 242 234 218 200 194 223 256 302 329 284
269 273 269 241 216 282 283 253 266 267 262 261 260 148 172 215 211 181 180 172 186 176 171 162 152 146 169 178 174 218 240 217 215 203 190 182 182 182 194 270 318 333 344
269 265 257 270 141 231 240 222 234 247 272 295 283 256 225 244 173 170 178 173 168 175 172 167 166 178 173 200 223 195 200 179 168 168 169 170 148 152 208 258 335 353 335
260 273 267 294 230 219 246 262 269 269 274 264 270 274 260 283 155 160 174 173 170 167 171 177 174 173 196 202 183 183 178 166 153 147 155 155 137 148 58 325 17 330 20
275 276 266 260 244 257 269 263 265 268 273 276 246 237 244 209 154 159 167 170 171 174 170 168 161 177 180 178 182 182 172 174 166 150 142 146 150 167 91 12 19 32 66